Regional Weather Roundup
Issued by NWS

Home | Current Version | Previous Version | Graphics & Text | Print | Product List | Glossary On
Versions: 1 2 3 4 5 6 7 8 9 10 11 12 13 14 15 16 17 18 19 20 21 22 23 24 25 26 27 28 29 30 31 32 33 34 35 36 37 38 39 40 41 42 43 44 45 46 47 48 49 50
386
ASUS45 KSLC 202310
RWRUT

UTAH REGIONAL WEATHER ROUNDUP
NATIONAL WEATHER SERVICE SALT LAKE CITY UT
500 PM MDT WED SEP 20 2017

UTZ001>011-023>025-210000-

NORTHERN UTAH

CITY           SKY/WX    TMP DP  RH WIND       PRES   REMARKS
BRIGHAM CITY   CLOUDY    69  29  23 CALM      29.74F
DUGWAY         MOSUNNY   79  26  14 S8        29.68F
HILL AFB       PTSUNNY   70  32  25 W5        29.74F
LOGAN          CLOUDY    70  32  24 SW8       29.75F
OGDEN          MOSUNNY   71  32  23 VRB7      29.73F
SALT LAKE CITY PTSUNNY   79  34  19 S18G28    29.69F
TOOELE VALLEY  SUNNY     77  34  20 SW14G21   29.71F
WENDOVER       CLOUDY    72  30  21 E14       29.67F
HEBER CITY     MOSUNNY   73  32  21 SW16G23   29.79F
WEST JORDAN    MOSUNNY   76  47  35 SE16G22   29.72F

$$

UTZ011>015-024>027-210000-

CENTRAL/NORTHEAST UTAH

CITY           SKY/WX    TMP DP  RH WIND       PRES   REMARKS
PROVO AIRPORT  MOSUNNY   76  36  23 CALM      29.75F
MOAB/CANYONLAN SUNNY     83  30  14 SW16      29.76F
DELTA          MOSUNNY   79  32  18 S22G35    29.73F
PRICE          PTSUNNY   75  35  23 S17       29.82F
ROOSEVELT      SUNNY     72  34  25 SE3       29.82F
VERNAL         SUNNY     74  36  25 SW12      29.80F

$$

UTZ013>016-019>022-027-210000-

SOUTHERN UTAH

CITY           SKY/WX    TMP DP  RH WIND       PRES   REMARKS
BRYCE CANYON   SUNNY     69  32  25 S17G24    30.01F
CEDAR CITY     SUNNY     76  35  22 SW22G32   29.86F
MILFORD        SUNNY     79  36  21 SW28G38   29.78F
ST GEORGE      PTCLDY    88  38  17 W15G24    29.72F
BLANDING         N/A     78  27  15 SW10G22   29.99F

$$

REGIONAL REPORTS     COLORADO/ARIZONA

CITY           SKY/WX    TMP DP  RH WIND       PRES   REMARKS
CRAIG, CO      SUNNY     75  27  17 SW25G33   29.85F
GRAND JUNCTION MOSUNNY   81  35  19 E3        29.79F
RIFLE, CO      MOSUNNY   78  33  19 W16G26    29.83F
MONTROSE, CO   SUNNY     79  28  15 W20       29.90S
CORTEZ, CO     SUNNY     80  26  13 S13       29.96F
PAGE, AZ       SUNNY     88  29  12 S10G21    29.78F
GRAND CANYON   SUNNY     74  24  15 SW21G36   30.02F
KINGMAN, AZ    SUNNY     85  39  19 SW22G32   29.84F
FLAGSTAFF, AZ  SUNNY     70  30  22 SW31G37   30.08F

$$

REGIONAL REPORTS    NEVADA/IDAHO/WYOMING

CITY           SKY/WX    TMP DP  RH WIND       PRES   REMARKS
LAS VEGAS, NV  SUNNY     91  38  15 SW13G23   29.66F
ELY, NY        SUNNY     74  28  18 SW23G38   29.79F
ELKO, NV       CLOUDY    66  28  24 W17       29.74F
POCATELLO, ID  PTSUNNY   63  37  38 SW9       29.73R
BURLEY, ID     CLOUDY    62  37  39 W6        29.69F
FORT BRIDGER,    N/A     65  28  25 W26G37    29.88F
EVANSTON, WY   CLOUDY    63  30  28 SW25G31   29.85F
ROCK SPRINGS,  SUNNY     61  29  29 W10       29.86F
KEMMERER, WY     N/A     55  28  35 W18G26    29.88S

$$




USA.gov is the U.S. government's official web portal to all federal, state and local government web resources and services.